| time (UTC) | temp F | wind direction | speed MPH | gust MPH | rain 1hr in | rain 24hr in | rain mn in | humidity % | barometer mb |
| 20260904200912 | 88 | 63 | 2.0 | 2.0 | 0.00 | 0.00 | 0.00 | 74 | 1016.2 |
| 20260904200410 | 88 | 78 | 1.0 | 2.0 | 0.00 | 0.00 | 0.00 | 73 | 1016.1 |
| 20260904195906 | 88 | 81 | 2.0 | 3.0 | 0.00 | 0.00 | 0.00 | 74 | 1016.2 |
| 20260904195403 | 88 | 179 | 1.0 | 4.0 | 0.00 | 0.00 | 0.00 | 73 | 1016.2 |
| 20260904194858 | 88 | 175 | 2.0 | 4.0 | 0.00 | 0.00 | 0.00 | 72 | 1016.2 |
| 20260904194358 | 89 | 140 | 2.0 | 3.0 | 0.00 | 0.00 | 0.00 | 71 | 1016.1 |
| 20260904193853 | 89 | 84 | 2.0 | 3.0 | 0.00 | 0.00 | 0.00 | 72 | 1016.0 |
| 20260904193348 | 89 | 95 | 2.0 | 3.0 | 0.00 | 0.00 | 0.00 | 73 | 1016.1 |
| 20260904192844 | 89 | 67 | 3.0 | 4.0 | 0.00 | 0.00 | 0.00 | 70 | 1016.1 |
| 20260904192339 | 89 | 80 | 1.0 | 3.0 | 0.00 | 0.00 | 0.00 | 72 | 1016.3 |
| 20260904191836 | 89 | 62 | 2.0 | 3.0 | 0.00 | 0.00 | 0.00 | 72 | 1016.2 |
| 20260904191332 | 89 | 99 | 2.0 | 6.0 | 0.00 | 0.00 | 0.00 | 72 | 1016.3 |
| 20260904190828 | 89 | 93 | 1.0 | 3.0 | 0.00 | 0.00 | 0.00 | 73 | 1016.3 |
| 20260904190324 | 89 | 70 | 2.0 | 3.0 | 0.00 | 0.00 | 0.00 | 73 | 1016.5 |
| 20260904185820 | 89 | 141 | 2.0 | 3.0 | 0.00 | 0.00 | 0.00 | 73 | 1016.8 |
| 20260904185315 | 90 | 147 | 1.0 | 3.0 | 0.00 | 0.00 | 0.00 | 71 | 1016.7 |
| 20260904184814 | 90 | 81 | 1.0 | 3.0 | 0.00 | 0.00 | 0.00 | 70 | 1016.8 |
| 20260904184310 | 89 | 81 | 1.0 | 2.0 | 0.00 | 0.00 | 0.00 | 71 | 1017.0 |
| 20260904183805 | 89 | 137 | 2.0 | 3.0 | 0.00 | 0.00 | 0.00 | 70 | 1016.9 |
| 20260904183306 | 89 | 91 | 1.0 | 3.0 | 0.00 | 0.00 | 0.00 | 70 | 1017.0 |
| 20260904182800 | 90 | 135 | 3.0 | 3.0 | 0.00 | 0.00 | 0.00 | 68 | 1016.9 |
| 20260904182255 | 89 | 154 | 2.0 | 2.0 | 0.00 | 0.00 | 0.00 | 68 | 1016.9 |
| 20260904181751 | 90 | 96 | 1.0 | 3.0 | 0.00 | 0.00 | 0.00 | 67 | 1017.1 |
| 20260904181251 | 90 | 99 | 3.0 | 4.0 | 0.00 | 0.00 | 0.00 | 66 | 1017.1 |
| 20260904180746 | 90 | 63 | 0.0 | 1.0 | 0.00 | 0.00 | 0.00 | 66 | 1017.0 |
| 20260904180242 | 90 | 81 | 0.0 | 2.0 | 0.00 | 0.00 | 0.00 | 66 | 1017.0 |
| 20260904175741 | 90 | 105 | 1.0 | 2.0 | 0.00 | 0.00 | 0.00 | 65 | 1017.0 |
| 20260904175239 | 90 | 356 | 2.0 | 3.0 | 0.00 | 0.00 | 0.00 | 65 | 1017.1 |
| 20260904174734 | 89 | 95 | 1.0 | 3.0 | 0.00 | 0.00 | 0.00 | 65 | 1017.1 |
| 20260904174230 | 89 | 93 | 3.0 | 4.0 | 0.00 | 0.00 | 0.00 | 64 | 1017.3 |
| 20260904173726 | 90 | 68 | 0.0 | 1.0 | 0.00 | 0.00 | 0.00 | 66 | 1017.2 |
| 20260904173220 | 90 | 68 | 1.0 | 2.0 | 0.00 | 0.00 | 0.00 | 66 | 1017.2 |
| 20260904172717 | 90 | 97 | 1.0 | 3.0 | 0.00 | 0.00 | 0.00 | 65 | 1017.2 |
| 20260904172215 | 91 | 130 | 2.0 | 3.0 | 0.00 | 0.00 | 0.00 | 64 | 1017.4 |
| 20260904171711 | 92 | 36 | 0.0 | 2.0 | 0.00 | 0.00 | 0.00 | 64 | 1017.5 |
| 20260904171206 | 91 | 67 | 0.0 | 1.0 | 0.00 | 0.00 | 0.00 | 66 | 1017.6 |
| 20260904170702 | 91 | 141 | 1.0 | 2.0 | 0.00 | 0.00 | 0.00 | 66 | 1017.7 |
| 20260904170158 | 91 | 82 | 0.0 | 1.0 | 0.00 | 0.00 | 0.00 | 65 | 1017.6 |
| 20260904165656 | 91 | 27 | 0.0 | 3.0 | 0.00 | 0.00 | 0.00 | 64 | 1017.7 |
| 20260904165156 | 91 | 67 | 0.0 | 3.0 | 0.00 | 0.00 | 0.00 | 63 | 1017.7 |
| 20260904164651 | 92 | 69 | 2.0 | 2.0 | 0.00 | 0.00 | 0.00 | 62 | 1017.6 |
| 20260904164146 | 92 | 89 | 1.0 | 2.0 | 0.00 | 0.00 | 0.00 | 61 | 1017.6 |
| 20260904163642 | 92 | 82 | 2.0 | 2.0 | 0.00 | 0.00 | 0.00 | 59 | 1017.5 |
| 20260904163137 | 92 | 34 | 1.0 | 1.0 | 0.00 | 0.00 | 0.00 | 58 | 1017.4 |
| 20260904162631 | 91 | 54 | 1.0 | 2.0 | 0.00 | 0.00 | 0.00 | 61 | 1017.4 |
| 20260904162126 | 92 | 8 | 1.0 | 1.0 | 0.00 | 0.00 | 0.00 | 63 | 1017.5 |
| 20260904161622 | 90 | 62 | 1.0 | 1.0 | 0.00 | 0.00 | 0.00 | 67 | 1017.2 |
| 20260904161117 | 89 | 68 | 0.0 | 1.0 | 0.00 | 0.00 | 0.00 | 67 | 1017.4 |
| 20260904160613 | 90 | 52 | 1.0 | 1.0 | 0.00 | 0.00 | 0.00 | 70 | 1017.4 |
| 20260904160108 | 89 | 60 | 0.0 | 2.0 | 0.00 | 0.00 | 0.00 | 71 | 1017.3 |
| 20260904155608 | 89 | 76 | 1.0 | 1.0 | 0.00 | 0.00 | 0.00 | 71 | 1017.4 |
| 20260904155102 | 89 | 347 | 1.0 | 3.0 | 0.00 | 0.00 | 0.00 | 72 | 1017.6 |
| 20260904154555 | 88 | 72 | 1.0 | 1.0 | 0.00 | 0.00 | 0.00 | 72 | 1017.5 |
| 20260904154050 | 88 | 75 | 0.0 | 1.0 | 0.00 | 0.00 | 0.00 | 74 | 1017.4 |
| 20260904153550 | 88 | 84 | 1.0 | 1.0 | 0.00 | 0.00 | 0.00 | 72 | 1017.5 |
| 20260904153046 | 88 | 70 | 0.0 | 1.0 | 0.00 | 0.00 | 0.00 | 71 | 1017.4 |
| 20260904152542 | 88 | 62 | 1.0 | 2.0 | 0.00 | 0.00 | 0.00 | 74 | 1017.5 |
| 20260904152038 | 90 | 46 | 0.0 | 1.0 | 0.00 | 0.00 | 0.00 | 72 | 1017.5 |
| 20260904151538 | 90 | 280 | 1.0 | 2.0 | 0.00 | 0.00 | 0.00 | 74 | 1017.4 |
| 20260904151037 | 90 | 63 | 0.0 | 2.0 | 0.00 | 0.00 | 0.00 | 74 | 1017.2 |
| 20260904150532 | 88 | 65 | 0.0 | 1.0 | 0.00 | 0.00 | 0.00 | 78 | 1017.4 |
| 20260904150027 | 87 | 88 | 1.0 | 2.0 | 0.00 | 0.00 | 0.00 | 81 | 1017.3 |
| 20260904145526 | 86 | 126 | 1.0 | 2.0 | 0.00 | 0.00 | 0.00 | 83 | 1017.4 |
| 20260904145021 | 85 | 61 | 0.0 | 1.0 | 0.00 | 0.00 | 0.00 | 86 | 1017.2 |
| 20260904144518 | 84 | 66 | 1.0 | 3.0 | 0.00 | 0.00 | 0.00 | 87 | 1017.3 |
| 20260904144013 | 84 | 83 | 3.0 | 3.0 | 0.00 | 0.00 | 0.00 | 88 | 1017.5 |
| 20260904143509 | 83 | 59 | 1.0 | 1.0 | 0.00 | 0.00 | 0.00 | 90 | 1017.4 |
| 20260904143006 | 83 | 67 | 0.0 | 0.0 | 0.00 | 0.00 | 0.00 | 90 | 1017.1 |
| 20260904142502 | 84 | 65 | 0.0 | 2.0 | 0.00 | 0.00 | 0.00 | 89 | 1017.3 |
| 20260904142001 | 84 | 102 | 1.0 | 3.0 | 0.00 | 0.00 | 0.00 | 87 | 1017.2 |
| 20260904141456 | 85 | 75 | 1.0 | 1.0 | 0.00 | 0.00 | 0.00 | 86 | 1017.2 |
| 20260904140953 | 86 | 76 | 0.0 | 1.0 | 0.00 | 0.00 | 0.00 | 84 | 1017.0 |
| 20260904140452 | 85 | 82 | 1.0 | 2.0 | 0.00 | 0.00 | 0.00 | 84 | 1017.1 |
| 20260904135952 | 85 | 65 | 0.0 | 1.0 | 0.00 | 0.00 | 0.00 | 86 | 1016.9 |
| 20260904135452 | 85 | 65 | 0.0 | 0.0 | 0.00 | 0.00 | 0.00 | 88 | 1016.8 |
| 20260904134948 | 84 | 94 | 1.0 | 1.0 | 0.00 | 0.00 | 0.00 | 88 | 1016.9 |
| 20260904134448 | 83 | 64 | 0.0 | 0.0 | 0.00 | 0.00 | 0.00 | 90 | 1016.8 |
| 20260904133943 | 82 | 58 | 0.0 | 1.0 | 0.00 | 0.00 | 0.00 | 91 | 1016.8 |
| 20260904133437 | 81 | 71 | 0.0 | 1.0 | 0.00 | 0.00 | 0.00 | 94 | 1016.7 |
| 20260904132933 | 81 | 88 | 1.0 | 1.0 | 0.00 | 0.00 | 0.00 | 95 | 1016.7 |
| 20260904132428 | 80 | 81 | 1.0 | 1.0 | 0.00 | 0.00 | 0.00 | 95 | 1016.7 |
| 20260904131928 | 80 | 65 | 0.0 | 2.0 | 0.00 | 0.00 | 0.00 | 96 | 1016.6 |
| 20260904131423 | 80 | 79 | 2.0 | 2.0 | 0.00 | 0.00 | 0.00 | 96 | 1016.5 |
| 20260904130919 | 80 | 84 | 1.0 | 1.0 | 0.00 | 0.00 | 0.00 | 96 | 1016.4 |
| 20260904130417 | 80 | 71 | 0.0 | 1.0 | 0.00 | 0.00 | 0.00 | 96 | 1016.5 |
| 20260904125913 | 79 | 58 | 0.0 | 1.0 | 0.00 | 0.00 | 0.00 | 97 | 1016.4 |
| 20260904125410 | 79 | 87 | 0.0 | 1.0 | 0.00 | 0.00 | 0.00 | 97 | 1016.4 |
| 20260904124908 | 79 | 81 | 1.0 | 1.0 | 0.00 | 0.00 | 0.00 | 97 | 1016.5 |
| 20260904124405 | 79 | 65 | 0.0 | 1.0 | 0.00 | 0.00 | 0.00 | 97 | 1016.3 |
| 20260904123900 | 79 | 68 | 0.0 | 2.0 | 0.00 | 0.00 | 0.00 | 97 | 1016.1 |
| 20260904123355 | 79 | 72 | 0.0 | 1.0 | 0.00 | 0.00 | 0.00 | 97 | 1016.3 |
| 20260904122851 | 79 | 66 | 0.0 | 0.0 | 0.00 | 0.00 | 0.00 | 97 | 1016.2 |
| 20260904122350 | 79 | 72 | 0.0 | 1.0 | 0.00 | 0.00 | 0.00 | 97 | 1016.1 |
| 20260904121844 | 79 | 70 | 0.0 | 1.0 | 0.00 | 0.00 | 0.00 | 97 | 1016.2 |
| 20260904121341 | 79 | 67 | 1.0 | 1.0 | 0.00 | 0.00 | 0.00 | 97 | 1016.1 |
| 20260904120837 | 79 | 77 | 1.0 | 2.0 | 0.00 | 0.00 | 0.00 | 97 | 1016.0 |
| 20260904120333 | 79 | 82 | 1.0 | 1.0 | 0.00 | 0.00 | 0.00 | 97 | 1016.0 |
| 20260904115828 | 79 | 70 | 0.0 | 1.0 | 0.00 | 0.00 | 0.00 | 97 | 1016.0 |
| 20260904115323 | 79 | 69 | 0.0 | 1.0 | 0.00 | 0.00 | 0.00 | 97 | 1015.7 |
| 20260904114823 | 79 | 77 | 0.0 | 1.0 | 0.00 | 0.00 | 0.00 | 97 | 1015.6 |
| 20260904114318 | 79 | 68 | 1.0 | 1.0 | 0.00 | 0.00 | 0.00 | 96 | 1015.6 |
| 20260904113813 | 79 | 71 | 0.0 | 1.0 | 0.00 | 0.00 | 0.00 | 96 | 1015.6 |
| 20260904113312 | 79 | 70 | 0.0 | 1.0 | 0.00 | 0.00 | 0.00 | 96 | 1015.5 |
| 20260904112807 | 80 | 68 | 0.0 | 1.0 | 0.00 | 0.00 | 0.00 | 96 | 1015.7 |
| 20260904112305 | 80 | 84 | 0.0 | 1.0 | 0.00 | 0.00 | 0.00 | 96 | 1015.6 |
| 20260904111758 | 80 | 60 | 0.0 | 1.0 | 0.00 | 0.00 | 0.00 | 96 | 1015.6 |
| 20260904111254 | 79 | 86 | 0.0 | 1.0 | 0.00 | 0.00 | 0.00 | 96 | 1015.5 |
| 20260904110749 | 79 | 68 | 1.0 | 1.0 | 0.00 | 0.00 | 0.00 | 96 | 1015.6 |
| 20260904110248 | 79 | 65 | 0.0 | 0.0 | 0.00 | 0.00 | 0.00 | 96 | 1015.4 |
| 20260904105744 | 79 | 63 | 0.0 | 2.0 | 0.00 | 0.00 | 0.00 | 96 | 1015.7 |
| 20260904105238 | 79 | 59 | 0.0 | 0.0 | 0.00 | 0.00 | 0.00 | 96 | 1015.4 |
| 20260904104733 | 79 | 48 | 0.0 | 0.0 | 0.00 | 0.00 | 0.00 | 96 | 1015.5 |
| 20260904104229 | 79 | 59 | 0.0 | 0.0 | 0.00 | 0.00 | 0.00 | 96 | 1015.5 |
| 20260904103726 | 79 | 62 | 0.0 | 0.0 | 0.00 | 0.00 | 0.00 | 96 | 1015.4 |
| 20260904103220 | 79 | 62 | 0.0 | 0.0 | 0.00 | 0.00 | 0.00 | 96 | 1015.3 |
| 20260904102716 | 79 | 63 | 0.0 | 0.0 | 0.00 | 0.00 | 0.00 | 96 | 1015.3 |
| 20260904102211 | 79 | 67 | 0.0 | 0.0 | 0.00 | 0.00 | 0.00 | 96 | 1015.4 |
| 20260904101708 | 79 | 63 | 0.0 | 0.0 | 0.00 | 0.00 | 0.00 | 96 | 1015.4 |
| 20260904101203 | 79 | 65 | 0.0 | 2.0 | 0.00 | 0.00 | 0.00 | 96 | 1015.3 |
| 20260904100659 | 79 | 74 | 0.0 | 1.0 | 0.00 | 0.00 | 0.00 | 96 | 1015.3 |
| 20260904100155 | 79 | 66 | 0.0 | 0.0 | 0.00 | 0.00 | 0.00 | 96 | 1015.4 |
| 20260904095654 | 79 | 271 | 1.0 | 3.0 | 0.00 | 0.00 | 0.00 | 96 | 1015.3 |
| 20260904095148 | 79 | 61 | 0.0 | 0.0 | 0.00 | 0.00 | 0.00 | 96 | 1015.4 |
| 20260904094644 | 79 | 73 | 2.0 | 2.0 | 0.00 | 0.00 | 0.00 | 97 | 1015.4 |
| 20260904094138 | 79 | 79 | 0.0 | 1.0 | 0.00 | 0.00 | 0.00 | 97 | 1015.5 |
| 20260904093636 | 79 | 67 | 0.0 | 1.0 | 0.00 | 0.00 | 0.00 | 97 | 1015.3 |
| 20260904093135 | 79 | 64 | 1.0 | 2.0 | 0.00 | 0.00 | 0.00 | 97 | 1015.0 |
| 20260904092631 | 79 | 71 | 0.0 | 1.0 | 0.00 | 0.00 | 0.00 | 97 | 1014.9 |
| 20260904092127 | 79 | 69 | 0.0 | 1.0 | 0.00 | 0.00 | 0.00 | 97 | 1015.5 |
| 20260904091623 | 79 | 72 | 0.0 | 2.0 | 0.00 | 0.00 | 0.00 | 97 | 1015.4 |
| 20260904091123 | 79 | 64 | 0.0 | 1.0 | 0.00 | 0.00 | 0.00 | 97 | 1015.3 |
| 20260904090618 | 79 | 68 | 0.0 | 1.0 | 0.00 | 0.00 | 0.00 | 97 | 1015.2 |
| 20260904090115 | 79 | 67 | 0.0 | 2.0 | 0.00 | 0.00 | 0.00 | 96 | 1015.5 |
| 20260904085614 | 79 | 79 | 0.0 | 0.0 | 0.00 | 0.00 | 0.00 | 96 | 1015.3 |
| 20260904085114 | 79 | 73 | 0.0 | 1.0 | 0.00 | 0.00 | 0.00 | 96 | 1015.3 |
| 20260904084610 | 80 | 60 | 1.0 | 1.0 | 0.00 | 0.00 | 0.00 | 96 | 1015.3 |
| 20260904084106 | 80 | 72 | 1.0 | 3.0 | 0.00 | 0.00 | 0.00 | 96 | 1015.2 |
| 20260904083602 | 80 | 66 | 0.0 | 1.0 | 0.00 | 0.00 | 0.00 | 96 | 1015.4 |
| 20260904083057 | 80 | 69 | 1.0 | 2.0 | 0.00 | 0.00 | 0.00 | 95 | 1015.2 |
| 20260904082552 | 80 | 66 | 0.0 | 2.0 | 0.00 | 0.00 | 0.00 | 95 | 1015.2 |
| 20260904082048 | 80 | 64 | 0.0 | 1.0 | 0.00 | 0.00 | 0.00 | 95 | 1015.3 |
| 20260904081543 | 80 | 67 | 0.0 | 2.0 | 0.00 | 0.00 | 0.00 | 95 | 1015.3 |
| 20260904081038 | 80 | 70 | 1.0 | 3.0 | 0.00 | 0.00 | 0.00 | 95 | 1015.2 |
| 20260904080534 | 80 | 87 | 0.0 | 1.0 | 0.00 | 0.00 | 0.00 | 95 | 1015.3 |
| 20260904080030 | 80 | 61 | 0.0 | 0.0 | 0.00 | 0.00 | 0.00 | 95 | 1015.5 |
| 20260904075526 | 80 | 65 | 0.0 | 2.0 | 0.00 | 0.00 | 0.00 | 95 | 1015.3 |
| 20260904075020 | 80 | 77 | 1.0 | 4.0 | 0.00 | 0.00 | 0.00 | 95 | 1015.3 |
| 20260904074515 | 80 | 61 | 1.0 | 1.0 | 0.00 | 0.00 | 0.00 | 95 | 1015.0 |
| 20260904074014 | 80 | 66 | 0.0 | 1.0 | 0.00 | 0.00 | 0.00 | 95 | 1015.4 |
| 20260904073510 | 80 | 91 | 1.0 | 2.0 | 0.00 | 0.00 | 0.00 | 96 | 1015.4 |
| 20260904073006 | 80 | 93 | 1.0 | 3.0 | 0.00 | 0.00 | 0.00 | 96 | 1015.5 |
| 20260904072502 | 80 | 60 | 0.0 | 1.0 | 0.00 | 0.00 | 0.00 | 96 | 1015.5 |
| 20260904072002 | 79 | 66 | 0.0 | 0.0 | 0.00 | 0.00 | 0.00 | 96 | 1015.6 |
| 20260904071457 | 80 | 154 | 1.0 | 1.0 | 0.00 | 0.00 | 0.00 | 95 | 1015.5 |
| 20260904070952 | 80 | 63 | 0.0 | 1.0 | 0.00 | 0.00 | 0.00 | 95 | 1015.4 |
| 20260904070450 | 80 | 67 | 0.0 | 0.0 | 0.00 | 0.00 | 0.00 | 95 | 1015.7 |
| 20260904065945 | 80 | 73 | 1.0 | 2.0 | 0.00 | 0.00 | 0.00 | 95 | 1015.7 |
| 20260904065441 | 80 | 73 | 0.0 | 1.0 | 0.00 | 0.00 | 0.00 | 95 | 1015.7 |
| 20260904064936 | 80 | 54 | 1.0 | 1.0 | 0.00 | 0.00 | 0.00 | 95 | 1015.7 |
| 20260904064433 | 80 | 62 | 0.0 | 1.0 | 0.00 | 0.00 | 0.00 | 95 | 1015.9 |
| 20260904063927 | 80 | 74 | 1.0 | 2.0 | 0.00 | 0.00 | 0.00 | 95 | 1015.8 |
| 20260904063424 | 79 | 70 | 0.0 | 1.0 | 0.00 | 0.00 | 0.00 | 95 | 1015.7 |
| 20260904062918 | 79 | 71 | 0.0 | 1.0 | 0.00 | 0.00 | 0.00 | 95 | 1015.5 |
| 20260904062414 | 79 | 65 | 0.0 | 1.0 | 0.00 | 0.00 | 0.00 | 94 | 1015.5 |
| 20260904061910 | 79 | 63 | 0.0 | 1.0 | 0.00 | 0.00 | 0.00 | 94 | 1015.5 |
| 20260904061407 | 79 | 62 | 1.0 | 1.0 | 0.00 | 0.00 | 0.00 | 94 | 1015.7 |
| 20260904060902 | 79 | 60 | 0.0 | 0.0 | 0.00 | 0.00 | 0.00 | 94 | 1015.6 |
| 20260904060358 | 79 | 64 | 0.0 | 1.0 | 0.00 | 0.00 | 0.00 | 94 | 1015.5 |
| 20260904055853 | 79 | 88 | 1.0 | 6.0 | 0.00 | 0.00 | 0.00 | 94 | 1015.7 |
| 20260904055348 | 79 | 122 | 1.0 | 2.0 | 0.00 | 0.00 | 0.00 | 93 | 1015.6 |
| 20260904054844 | 79 | 123 | 2.0 | 3.0 | 0.00 | 0.00 | 0.00 | 93 | 1015.7 |
| 20260904054340 | 79 | 62 | 0.0 | 1.0 | 0.00 | 0.00 | 0.00 | 93 | 1015.7 |
| 20260904053835 | 80 | 83 | 1.0 | 4.0 | 0.00 | 0.00 | 0.00 | 92 | 1015.9 |
| 20260904053334 | 80 | 85 | 1.0 | 3.0 | 0.00 | 0.00 | 0.00 | 92 | 1015.6 |
| 20260904052831 | 80 | 105 | 1.0 | 2.0 | 0.00 | 0.00 | 0.00 | 92 | 1015.5 |
| 20260904052327 | 79 | 82 | 1.0 | 2.0 | 0.00 | 0.00 | 0.00 | 92 | 1015.3 |
| 20260904051823 | 79 | 68 | 1.0 | 3.0 | 0.00 | 0.00 | 0.00 | 92 | 1015.2 |
| 20260904051318 | 79 | 89 | 2.0 | 4.0 | 0.00 | 0.00 | 0.00 | 92 | 1015.3 |
| 20260904050813 | 79 | 94 | 2.0 | 2.0 | 0.00 | 0.00 | 0.00 | 91 | 1015.4 |
| 20260904050311 | 79 | 93 | 1.0 | 2.0 | 0.00 | 0.00 | 0.00 | 91 | 1015.6 |
| 20260904045810 | 79 | 67 | 0.0 | 1.0 | 0.00 | 0.06 | 0.06 | 91 | 1015.7 |
| 20260904045307 | 80 | 71 | 0.0 | 1.0 | 0.00 | 0.06 | 0.06 | 91 | 1015.6 |
| 20260904044759 | 80 | 101 | 1.0 | 4.0 | 0.00 | 0.06 | 0.06 | 91 | 1015.6 |
| 20260904044257 | 80 | 84 | 1.0 | 1.0 | 0.00 | 0.06 | 0.06 | 91 | 1015.8 |
| 20260904043752 | 80 | 92 | 2.0 | 2.0 | 0.00 | 0.06 | 0.06 | 90 | 1015.8 |
| 20260904043248 | 80 | 74 | 1.0 | 1.0 | 0.00 | 0.06 | 0.06 | 90 | 1015.5 |
| 20260904042743 | 80 | 100 | 1.0 | 2.0 | 0.00 | 0.06 | 0.06 | 90 | 1015.5 |
| 20260904042240 | 80 | 83 | 1.0 | 2.0 | 0.00 | 0.06 | 0.06 | 90 | 1015.6 |
| 20260904041739 | 80 | 70 | 1.0 | 2.0 | 0.00 | 0.06 | 0.06 | 90 | 1015.5 |
| 20260904041235 | 80 | 163 | 1.0 | 2.0 | 0.00 | 0.06 | 0.06 | 89 | 1015.6 |
| 20260904040731 | 80 | 89 | 2.0 | 3.0 | 0.00 | 0.06 | 0.06 | 89 | 1015.7 |
| 20260904040226 | 80 | 96 | 1.0 | 3.0 | 0.00 | 0.06 | 0.06 | 89 | 1015.5 |
| 20260904035722 | 80 | 82 | 0.0 | 2.0 | 0.00 | 0.06 | 0.06 | 89 | 1015.6 |
| 20260904035217 | 80 | 79 | 1.0 | 1.0 | 0.00 | 0.06 | 0.06 | 89 | 1015.7 |
| 20260904034716 | 80 | 81 | 0.0 | 1.0 | 0.00 | 0.06 | 0.06 | 89 | 1015.7 |
| 20260904034212 | 80 | 160 | 2.0 | 3.0 | 0.00 | 0.06 | 0.06 | 89 | 1015.6 |
| 20260904033708 | 80 | 91 | 1.0 | 3.0 | 0.00 | 0.06 | 0.06 | 89 | 1015.4 |
| 20260904033205 | 80 | 69 | 1.0 | 2.0 | 0.00 | 0.06 | 0.06 | 89 | 1015.4 |
| 20260904032701 | 80 | 123 | 2.0 | 2.0 | 0.00 | 0.06 | 0.06 | 89 | 1015.5 |
| 20260904032159 | 80 | 154 | 3.0 | 3.0 | 0.00 | 0.06 | 0.06 | 89 | 1015.4 |
| 20260904031700 | 80 | 71 | 0.0 | 1.0 | 0.00 | 0.06 | 0.06 | 88 | 1015.5 |
| 20260904031155 | 80 | 70 | 1.0 | 2.0 | 0.00 | 0.06 | 0.06 | 88 | 1015.5 |
| 20260904030651 | 80 | 61 | 1.0 | 3.0 | 0.00 | 0.06 | 0.06 | 88 | 1015.7 |
| 20260904030146 | 80 | 77 | 2.0 | 2.0 | 0.00 | 0.06 | 0.06 | 88 | 1015.5 |
| 20260904025642 | 80 | 106 | 2.0 | 3.0 | 0.00 | 0.06 | 0.06 | 88 | 1015.5 |
| 20260904025136 | 80 | 63 | 1.0 | 1.0 | 0.00 | 0.06 | 0.06 | 88 | 1015.6 |
| 20260904024632 | 80 | 172 | 2.0 | 3.0 | 0.00 | 0.06 | 0.06 | 87 | 1015.3 |
| 20260904024127 | 80 | 74 | 1.0 | 1.0 | 0.00 | 0.06 | 0.06 | 88 | 1015.4 |
| 20260904023623 | 80 | 163 | 2.0 | 3.0 | 0.00 | 0.06 | 0.06 | 87 | 1015.2 |
| 20260904023119 | 80 | 87 | 2.0 | 3.0 | 0.00 | 0.06 | 0.06 | 87 | 1015.0 |
| 20260904022613 | 80 | 71 | 1.0 | 4.0 | 0.00 | 0.06 | 0.06 | 87 | 1015.0 |
| 20260904022110 | 80 | 75 | 0.0 | 6.0 | 0.00 | 0.06 | 0.06 | 87 | 1014.9 |
| 20260904021600 | 80 | 86 | 1.0 | 2.0 | 0.00 | 0.06 | 0.06 | 87 | 1014.6 |
| 20260904021055 | 80 | 79 | 2.0 | 2.0 | 0.00 | 0.06 | 0.06 | 87 | 1014.4 |
| 20260904020549 | 80 | 100 | 2.0 | 2.0 | 0.00 | 0.06 | 0.06 | 86 | 1014.6 |
| 20260904020039 | 80 | 107 | 1.0 | 2.0 | 0.00 | 0.06 | 0.06 | 86 | 1014.5 |
| 20260904015533 | 80 | 75 | 0.0 | 1.0 | 0.00 | 0.06 | 0.06 | 86 | 1014.5 |
| 20260904015033 | 80 | 64 | 1.0 | 1.0 | 0.00 | 0.06 | 0.06 | 86 | 1014.6 |
| 20260904014531 | 80 | 79 | 2.0 | 3.0 | 0.00 | 0.06 | 0.06 | 86 | 1014.3 |
| 20260904014027 | 80 | 71 | 1.0 | 2.0 | 0.00 | 0.06 | 0.06 | 86 | 1014.2 |
| 20260904013524 | 80 | 91 | 2.0 | 4.0 | 0.00 | 0.06 | 0.06 | 86 | 1014.3 |
| 20260904013021 | 80 | 109 | 2.0 | 3.0 | 0.00 | 0.06 | 0.06 | 86 | 1014.3 |
| 20260904012520 | 80 | 81 | 2.0 | 3.0 | 0.00 | 0.06 | 0.06 | 86 | 1014.1 |
| 20260904012015 | 80 | 84 | 1.0 | 2.0 | 0.00 | 0.06 | 0.06 | 85 | 1014.0 |
| 20260904011509 | 80 | 92 | 2.0 | 6.0 | 0.00 | 0.06 | 0.06 | 85 | 1014.0 |
| 20260904011004 | 80 | 120 | 2.0 | 3.0 | 0.00 | 0.06 | 0.06 | 86 | 1013.9 |
| 20260904010500 | 80 | 85 | 2.0 | 4.0 | 0.00 | 0.06 | 0.06 | 86 | 1013.9 |
| 20260904005955 | 80 | 83 | 1.0 | 3.0 | 0.00 | 0.06 | 0.06 | 85 | 1014.0 |
| 20260904005451 | 80 | 155 | 1.0 | 2.0 | 0.00 | 0.06 | 0.06 | 85 | 1014.0 |
| 20260904004950 | 80 | 153 | 2.0 | 4.0 | 0.00 | 0.06 | 0.06 | 85 | 1013.9 |
| 20260904004447 | 80 | 80 | 0.0 | 2.0 | 0.00 | 0.06 | 0.06 | 85 | 1014.0 |
| 20260904003947 | 80 | 98 | 2.0 | 3.0 | 0.00 | 0.06 | 0.06 | 84 | 1014.0 |
| 20260904003443 | 80 | 68 | 1.0 | 6.0 | 0.00 | 0.06 | 0.06 | 84 | 1014.1 |
| 20260904002938 | 80 | 169 | 2.0 | 3.0 | 0.00 | 0.06 | 0.06 | 84 | 1013.9 |
| 20260904002435 | 80 | 85 | 1.0 | 7.0 | 0.00 | 0.06 | 0.06 | 84 | 1014.0 |
| 20260904001933 | 80 | 112 | 4.0 | 4.0 | 0.00 | 0.06 | 0.06 | 84 | 1014.2 |
| 20260904001430 | 80 | 85 | 0.0 | 1.0 | 0.00 | 0.06 | 0.06 | 85 | 1014.0 |
| 20260904000929 | 80 | 94 | 1.0 | 3.0 | 0.00 | 0.06 | 0.06 | 85 | 1014.1 |
| 20260904000429 | 80 | 139 | 2.0 | 6.0 | 0.00 | 0.06 | 0.06 | 85 | 1014.2 |
| 20260903235924 | 80 | 86 | 2.0 | 3.0 | 0.00 | 0.06 | 0.06 | 85 | 1014.0 |
| 20260903235420 | 80 | 119 | 2.0 | 6.0 | 0.00 | 0.06 | 0.06 | 85 | 1014.1 |
| 20260903234919 | 80 | 104 | 2.0 | 3.0 | 0.00 | 0.06 | 0.06 | 86 | 1014.1 |
| 20260903234415 | 80 | 80 | 0.0 | 3.0 | 0.00 | 0.06 | 0.06 | 87 | 1014.2 |
| 20260903233912 | 80 | 68 | 0.0 | 3.0 | 0.00 | 0.06 | 0.06 | 88 | 1014.2 |
| 20260903233408 | 80 | 105 | 1.0 | 2.0 | 0.00 | 0.06 | 0.06 | 89 | 1014.2 |
| 20260903232907 | 80 | 74 | 0.0 | 1.0 | 0.00 | 0.06 | 0.06 | 90 | 1014.2 |
| 20260903232403 | 80 | 104 | 1.0 | 2.0 | 0.00 | 0.06 | 0.06 | 90 | 1014.2 |
| 20260903231902 | 80 | 76 | 1.0 | 2.0 | 0.00 | 0.06 | 0.06 | 90 | 1014.4 |
| 20260903231357 | 80 | 85 | 1.0 | 2.0 | 0.00 | 0.06 | 0.06 | 89 | 1014.3 |
| 20260903230852 | 80 | 97 | 1.0 | 2.0 | 0.00 | 0.06 | 0.06 | 89 | 1014.3 |
| 20260903230347 | 80 | 76 | 1.0 | 3.0 | 0.00 | 0.06 | 0.06 | 89 | 1014.3 |
| 20260903225844 | 80 | 80 | 2.0 | 3.0 | 0.00 | 0.06 | 0.06 | 88 | 1014.2 |
| 20260903225339 | 81 | 151 | 0.0 | 3.0 | 0.00 | 0.06 | 0.06 | 88 | 1014.2 |
| 20260903224836 | 81 | 352 | 2.0 | 4.0 | 0.00 | 0.06 | 0.06 | 88 | 1014.3 |
| 20260903224331 | 81 | 78 | 0.0 | 3.0 | 0.00 | 0.06 | 0.06 | 89 | 1014.6 |
| 20260903223827 | 81 | 93 | 2.0 | 4.0 | 0.00 | 0.06 | 0.06 | 88 | 1014.6 |
| 20260903223326 | 81 | 72 | 1.0 | 3.0 | 0.00 | 0.06 | 0.06 | 90 | 1014.5 |
| 20260903222821 | 81 | 90 | 2.0 | 6.0 | 0.00 | 0.06 | 0.06 | 90 | 1014.3 |
| 20260903222320 | 81 | 75 | 2.0 | 3.0 | 0.00 | 0.06 | 0.06 | 90 | 1014.8 |
| 20260903221815 | 81 | 116 | 1.0 | 2.0 | 0.00 | 0.06 | 0.06 | 91 | 1014.7 |
| 20260903221314 | 81 | 95 | 2.0 | 4.0 | 0.00 | 0.06 | 0.06 | 91 | 1014.8 |
| 20260903220812 | 81 | 184 | 1.0 | 2.0 | 0.00 | 0.06 | 0.06 | 91 | 1014.6 |
| 20260903220307 | 81 | 97 | 2.0 | 3.0 | 0.00 | 0.06 | 0.06 | 92 | 1014.8 |
| 20260903215804 | 81 | 113 | 3.0 | 4.0 | 0.00 | 0.06 | 0.06 | 92 | 1014.7 |
| 20260903215301 | 82 | 27 | 2.0 | 9.0 | 0.00 | 0.06 | 0.06 | 93 | 1014.8 |
| 20260903214759 | 81 | 96 | 1.0 | 4.0 | 0.00 | 0.06 | 0.06 | 93 | 1014.9 |
| 20260903214255 | 81 | 68 | 2.0 | 3.0 | 0.07 | 0.06 | 0.06 | 93 | 1015.0 |
| 20260903213749 | 81 | 76 | 2.0 | 3.0 | 0.07 | 0.06 | 0.06 | 92 | 1015.2 |
| 20260903213246 | 81 | 106 | 2.0 | 3.0 | 0.00 | 0.05 | 0.05 | 92 | 1015.4 |
| 20260903212741 | 81 | 65 | 0.0 | 2.0 | 0.00 | 0.05 | 0.05 | 91 | 1015.4 |
| 20260903212238 | 82 | 87 | 3.0 | 3.0 | 0.00 | 0.05 | 0.05 | 90 | 1015.2 |
| 20260903211736 | 82 | 71 | 1.0 | 4.0 | 0.00 | 0.05 | 0.05 | 89 | 1015.4 |
| 20260903211233 | 82 | 89 | 2.0 | 3.0 | 0.00 | 0.05 | 0.05 | 88 | 1015.5 |
| 20260903210729 | 82 | 74 | 0.0 | 4.0 | 0.00 | 0.05 | 0.05 | 87 | 1015.5 |
| 20260903210225 | 82 | 92 | 1.0 | 3.0 | 0.00 | 0.05 | 0.05 | 87 | 1015.4 |
| 20260903205724 | 82 | 79 | 1.0 | 2.0 | 0.00 | 0.05 | 0.05 | 87 | 1015.6 |
| 20260903205223 | 82 | 108 | 1.0 | 3.0 | 0.00 | 0.05 | 0.05 | 87 | 1015.5 |
| 20260903204719 | 82 | 58 | 0.0 | 2.0 | 0.00 | 0.05 | 0.05 | 87 | 1015.5 |
| 20260903204215 | 82 | 78 | 0.0 | 2.0 | 0.00 | 0.05 | 0.05 | 87 | 1015.6 |
| 20260903203710 | 82 | 59 | 1.0 | 2.0 | 0.00 | 0.05 | 0.05 | 87 | 1015.5 |
| 20260903203206 | 82 | 56 | 0.0 | 3.0 | 0.00 | 0.05 | 0.05 | 87 | 1015.7 |
| 20260903202705 | 82 | 64 | 0.0 | 1.0 | 0.00 | 0.05 | 0.05 | 87 | 1015.8 |
| 20260903202201 | 82 | 53 | 1.0 | 3.0 | 0.00 | 0.05 | 0.05 | 87 | 1015.6 |
| 20260903201701 | 82 | 58 | 1.0 | 3.0 | 0.00 | 0.05 | 0.05 | 88 | 1015.7 |
| 20260903201156 | 82 | 87 | 2.0 | 3.0 | 0.00 | 0.05 | 0.05 | 89 | 1015.7 |